Location: Sternwarte_Laufen
(47.9344°N, 12.9346°E)
Time: 16:25:40
(UTC+02:00)

ISS - Pass Details

Date: 23 May 2018
Orbit: 402 x 406 km, 51.6° (Epoch: 19 June)

Event Time Altitude Azimuth Distance (km) Brightness Sun altitude
Rises 03:45:50 0° 290° (WNW) 2,321 -0.2 -12.6°
Reaches altitude 10° 03:48:04 10° 278° (W) 1,458 -1.3 -12.4°
Maximum altitude 03:50:55 28° 217° (SW) 789 -3.0 -12.1°
Drops below altitude 10° 03:53:46 10° 156° (SSE) 1,451 -1.3 -11.8°
Sets 03:56:00 0° 144° (SE) 2,306 -0.1 -11.5°
